| time (UTC) | temp C | wind direction | speed KPH | gust KPH | rain 1hr cm | rain 24hr cm | rain mn cm | humidity % | barometer mb |
| 20260506224305 | 3 | 147 | 8.0 | 12.9 | 0.00 | 1.09 | 0.33 | 73 | 1015.7 |
| 20260506223806 | 4 | 167 | 11.3 | 14.5 | 0.00 | 1.12 | 0.33 | 73 | 1015.7 |
| 20260506222306 | 3 | 221 | 4.8 | 11.3 | 0.00 | 1.12 | 0.33 | 74 | 1015.7 |
| 20260506220304 | 3 | 211 | 1.6 | 4.8 | 0.00 | 1.14 | 0.33 | 80 | 1015.7 |
| 20260506215805 | 3 | 170 | 1.6 | 8.0 | 0.00 | 1.14 | 0.33 | 80 | 1015.7 |
| 20260506215306 | 2 | 220 | 4.8 | 8.0 | 0.00 | 1.14 | 0.33 | 80 | 1015.7 |
| 20260506213805 | 3 | 160 | 4.8 | 11.3 | 0.00 | 1.19 | 0.33 | 82 | 1015.7 |
| 20260506213305 | 2 | 184 | 0.0 | 3.2 | 0.00 | 1.19 | 0.33 | 82 | 1015.7 |
| 20260506205306 | 1 | 184 | 3.2 | 4.8 | 0.00 | 1.30 | 0.33 | 83 | 1015.7 |
| 20260506204304 | 1 | 200 | 1.6 | 4.8 | 0.00 | 1.30 | 0.33 | 84 | 1015.7 |
| 20260506203305 | 1 | 136 | 3.2 | 9.7 | 0.00 | 1.30 | 0.33 | 84 | 1015.7 |
| 20260506202804 | 1 | 189 | 3.2 | 4.8 | 0.00 | 1.32 | 0.33 | 84 | 1015.7 |
| 20260506202306 | 1 | 225 | 3.2 | 4.8 | 0.00 | 1.32 | 0.33 | 81 | 1015.7 |
| 20260506201805 | 2 | 315 | 1.6 | 4.8 | 0.00 | 1.32 | 0.33 | 83 | 1015.7 |
| 20260506200804 | 1 | 319 | 1.6 | 3.2 | 0.00 | 1.35 | 0.33 | 83 | 1015.7 |
| 20260506193305 | 1 | 5 | 3.2 | 8.0 | 0.00 | 1.35 | 0.33 | 88 | 1015.7 |
| 20260506192306 | 1 | 350 | 1.6 | 8.0 | 0.00 | 1.35 | 0.33 | 86 | 1015.7 |
| 20260506191805 | 1 | 325 | 1.6 | 8.0 | 0.00 | 1.35 | 0.33 | 87 | 1015.7 |
| 20260506190805 | 1 | 226 | 1.6 | 4.8 | 0.00 | 1.35 | 0.33 | 87 | 1015.7 |
| 20260506185804 | 1 | 271 | 0.0 | 4.8 | 0.00 | 1.35 | 0.33 | 88 | 1015.7 |
| 20260506185307 | 1 | 289 | 4.8 | 9.7 | 0.00 | 1.35 | 0.33 | 88 | 1015.7 |
| 20260506184805 | 1 | 26 | 4.8 | 8.0 | 0.00 | 1.35 | 0.33 | 88 | 1015.7 |
| 20260506183804 | 1 | 346 | 4.8 | 8.0 | 0.03 | 1.35 | 0.33 | 88 | 1015.7 |
| 20260506183304 | 1 | 346 | 1.6 | 4.8 | 0.03 | 1.35 | 0.33 | 89 | 1015.7 |
| 20260506182306 | 1 | 348 | 4.8 | 11.3 | 0.03 | 1.35 | 0.33 | 90 | 1015.7 |
| 20260506181805 | 1 | 338 | 4.8 | 11.3 | 0.03 | 1.35 | 0.33 | 90 | 1015.7 |
| 20260506181304 | 0 | 336 | 6.4 | 9.7 | 0.03 | 1.37 | 0.33 | 91 | 1015.7 |
| 20260506180805 | 0 | 336 | 3.2 | 8.0 | 0.05 | 1.37 | 0.33 | 91 | 1015.7 |
| 20260506180305 | 1 | 336 | 3.2 | 9.7 | 0.05 | 1.37 | 0.33 | 91 | 1015.7 |
| 20260506174805 | 0 | 336 | 3.2 | 8.0 | 0.05 | 1.37 | 0.33 | 91 | 1015.4 |
| 20260506173304 | 0 | 336 | 1.6 | 9.7 | 0.05 | 1.37 | 0.30 | 92 | 1011.5 |
| 20260506172804 | 0 | 336 | 3.2 | 11.3 | 0.05 | 1.40 | 0.30 | 92 | 1011.5 |
| 20260506171805 | 0 | 18 | 8.0 | 12.9 | 0.05 | 1.40 | 0.30 | 92 | 1011.5 |
| 20260506171305 | 0 | 4 | 8.0 | 16.1 | 0.05 | 1.40 | 0.30 | 93 | 1011.5 |
| 20260506170804 | 0 | 25 | 6.4 | 14.5 | 0.05 | 1.37 | 0.28 | 92 | 1011.5 |
| 20260506163805 | 0 | 1 | 9.7 | 19.3 | 0.08 | 1.40 | 0.28 | 93 | 1011.5 |
| 20260506162804 | 0 | 353 | 11.3 | 20.9 | 0.05 | 1.40 | 0.25 | 93 | 1011.5 |
| 20260506161304 | 0 | 10 | 11.3 | 25.7 | 0.08 | 1.40 | 0.25 | 94 | 1011.5 |
| 20260506160805 | 0 | 13 | 9.7 | 22.5 | 0.05 | 1.37 | 0.23 | 94 | 1011.5 |
| 20260506155306 | 0 | 344 | 11.3 | 19.3 | 0.08 | 1.40 | 0.23 | 94 | 1011.5 |
| 20260506154804 | 0 | 341 | 8.0 | 16.1 | 0.08 | 1.40 | 0.23 | 94 | 1011.5 |
| 20260506154305 | 0 | 334 | 11.3 | 19.3 | 0.05 | 1.37 | 0.20 | 94 | 1011.5 |
| 20260506153304 | 0 | 337 | 8.0 | 20.9 | 0.05 | 1.37 | 0.20 | 94 | 1011.5 |
| 20260506152804 | 0 | 338 | 12.9 | 19.3 | 0.05 | 1.37 | 0.20 | 94 | 1011.5 |
| 20260506152306 | 0 | 331 | 14.5 | 20.9 | 0.05 | 1.37 | 0.20 | 94 | 1011.5 |
| 20260506151805 | 0 | 354 | 8.0 | 14.5 | 0.03 | 1.35 | 0.18 | 95 | 1011.5 |
| 20260506150305 | 0 | 351 | 0.0 | 0.0 | 0.00 | 1.32 | 0.15 | 95 | 1011.5 |
| 20260506145806 | 0 | 330 | 0.0 | 0.0 | 0.00 | 1.35 | 0.15 | 95 | 1011.5 |
| 20260506145306 | 0 | 5 | 0.0 | 0.0 | 0.00 | 1.35 | 0.15 | 95 | 1011.5 |
| 20260506144305 | 0 | 350 | 0.0 | 0.0 | 0.00 | 1.35 | 0.15 | 95 | 1011.5 |
| 20260506143305 | 0 | 346 | 0.0 | 0.0 | 0.00 | 1.37 | 0.15 | 95 | 1011.5 |
| 20260506142805 | 0 | 331 | 0.0 | 0.0 | 0.00 | 1.37 | 0.15 | 95 | 1011.5 |
| 20260506141304 | 0 | 13 | 0.0 | 0.0 | 0.00 | 1.37 | 0.15 | 95 | 1011.5 |
| 20260506140304 | 0 | 13 | 0.0 | 0.0 | 0.00 | 1.40 | 0.15 | 95 | 1011.5 |
| 20260506135306 | 0 | 13 | 0.0 | 0.0 | 0.00 | 1.42 | 0.15 | 95 | 1011.5 |
| 20260506134304 | 0 | 13 | 0.0 | 0.0 | 0.00 | 1.42 | 0.15 | 95 | 1011.5 |
| 20260506133305 | 0 | 14 | 0.0 | 0.0 | 0.00 | 1.45 | 0.15 | 95 | 1011.5 |
| 20260506132805 | 0 | 14 | 0.0 | 0.0 | 0.00 | 1.45 | 0.15 | 95 | 1011.5 |
| 20260506131804 | 0 | 14 | 0.0 | 0.0 | 0.00 | 1.45 | 0.15 | 95 | 1011.5 |
| 20260506131305 | 0 | 14 | 0.0 | 0.0 | 0.00 | 1.47 | 0.15 | 95 | 1011.5 |
| 20260506130805 | 0 | 14 | 0.0 | 0.0 | 0.00 | 1.47 | 0.15 | 95 | 1011.5 |
| 20260506130304 | 0 | 14 | 0.0 | 0.0 | 0.00 | 1.50 | 0.15 | 95 | 1011.5 |
| 20260506125805 | 0 | 14 | 0.0 | 0.0 | 0.00 | 1.50 | 0.15 | 95 | 1011.5 |
| 20260506125306 | 0 | 14 | 0.0 | 0.0 | 0.00 | 1.50 | 0.15 | 95 | 1011.5 |
| 20260506124805 | 0 | 14 | 0.0 | 0.0 | 0.00 | 1.52 | 0.15 | 96 | 1011.5 |
| 20260506123305 | 0 | 14 | 0.0 | 0.0 | 0.00 | 1.52 | 0.15 | 95 | 1011.5 |
| 20260506122805 | 0 | 14 | 0.0 | 0.0 | 0.00 | 1.52 | 0.15 | 95 | 1011.5 |
| 20260506122306 | 0 | 14 | 0.0 | 0.0 | 0.00 | 1.55 | 0.15 | 95 | 1011.5 |
| 20260506121306 | 0 | 14 | 0.0 | 0.0 | 0.00 | 1.55 | 0.15 | 95 | 1011.5 |
| 20260506120304 | 0 | 14 | 0.0 | 0.0 | 0.00 | 1.57 | 0.15 | 95 | 1011.5 |
| 20260506115805 | 0 | 14 | 0.0 | 0.0 | 0.00 | 1.57 | 0.15 | 95 | 1011.5 |
| 20260506115307 | 0 | 14 | 0.0 | 0.0 | 0.00 | 1.57 | 0.15 | 95 | 1011.5 |
| 20260506113804 | 0 | 14 | 0.0 | 0.0 | 0.00 | 1.63 | 0.15 | 95 | 1011.5 |
| 20260506113304 | 0 | 14 | 0.0 | 0.0 | 0.00 | 1.65 | 0.15 | 95 | 1011.5 |
| 20260506112805 | 0 | 14 | 0.0 | 0.0 | 0.00 | 1.65 | 0.15 | 95 | 1011.5 |
| 20260506112306 | 0 | 14 | 0.0 | 0.0 | 0.00 | 1.65 | 0.15 | 95 | 1011.5 |
| 20260506110804 | 0 | 14 | 0.0 | 0.0 | 0.00 | 1.68 | 0.15 | 95 | 1011.5 |
| 20260506110304 | 0 | 14 | 0.0 | 0.0 | 0.00 | 1.68 | 0.15 | 95 | 1011.5 |
| 20260506105804 | 0 | 14 | 0.0 | 0.0 | 0.00 | 1.68 | 0.15 | 95 | 1011.5 |
| 20260506105305 | 0 | 14 | 0.0 | 0.0 | 0.00 | 1.68 | 0.15 | 95 | 1011.5 |
| 20260506104804 | 0 | 14 | 0.0 | 0.0 | 0.00 | 1.68 | 0.15 | 95 | 1011.5 |
| 20260506102804 | 0 | 14 | 0.0 | 0.0 | 0.00 | 1.70 | 0.15 | 95 | 1011.5 |
| 20260506101305 | 0 | 14 | 0.0 | 0.0 | 0.00 | 1.73 | 0.15 | 95 | 1011.5 |
| 20260506095305 | 0 | 14 | 0.0 | 0.0 | 0.00 | 1.78 | 0.15 | 95 | 1011.5 |
| 20260506094804 | 0 | 14 | 0.0 | 0.0 | 0.03 | 1.80 | 0.15 | 95 | 1011.5 |
| 20260506094304 | 0 | 14 | 0.0 | 0.0 | 0.03 | 1.80 | 0.15 | 95 | 1011.5 |
| 20260506093804 | 0 | 14 | 0.0 | 0.0 | 0.03 | 1.80 | 0.15 | 95 | 1011.5 |
| 20260506092805 | 0 | 14 | 0.0 | 0.0 | 0.03 | 1.80 | 0.15 | 95 | 1011.5 |
| 20260506091805 | 0 | 14 | 0.0 | 0.0 | 0.03 | 1.80 | 0.15 | 95 | 1011.5 |
| 20260506091305 | 0 | 14 | 0.0 | 0.0 | 0.03 | 1.80 | 0.15 | 95 | 1011.5 |
| 20260506085804 | 0 | 14 | 0.0 | 0.0 | 0.03 | 1.80 | 0.15 | 95 | 1011.5 |
| 20260506085306 | 0 | 14 | 0.0 | 0.0 | 0.03 | 1.80 | 0.15 | 95 | 1011.5 |
| 20260506082805 | 0 | 14 | 0.0 | 0.0 | 0.03 | 1.83 | 0.13 | 95 | 1011.5 |
| 20260506080804 | 0 | 14 | 0.0 | 0.0 | 0.08 | 1.88 | 0.13 | 95 | 1011.5 |
| 20260506080304 | 0 | 13 | 0.0 | 0.0 | 0.10 | 1.88 | 0.13 | 95 | 1011.5 |
| 20260506073305 | 0 | 32 | 0.0 | 0.0 | 0.10 | 1.85 | 0.10 | 95 | 1008.1 |
| 20260506072804 | 0 | 34 | 0.0 | 0.0 | 0.10 | 1.85 | 0.10 | 95 | 1008.1 |
| 20260506070804 | 0 | 347 | 0.0 | 0.0 | 0.05 | 1.80 | 0.05 | 95 | 1008.1 |
| 20260506070304 | 0 | 0 | 0.0 | 0.0 | 0.03 | 1.78 | 0.03 | 95 | 1008.1 |
| 20260506061804 | 0 | 358 | 0.0 | 0.0 | 0.05 | 1.75 | 0.00 | 95 | 1008.1 |
| 20260506060817 | 0 | 355 | 0.0 | 0.0 | 0.08 | 1.75 | 0.00 | 95 | 1008.1 |
| 20260506051304 | 0 | 337 | 0.0 | 0.0 | 0.10 | 1.68 | 1.68 | 95 | 1008.1 |
| 20260506050805 | 0 | 337 | 1.6 | 3.2 | 0.10 | 1.68 | 1.68 | 95 | 1008.1 |
| 20260506044804 | 0 | 337 | 0.0 | 1.6 | 0.10 | 1.63 | 1.63 | 95 | 1008.1 |
| 20260506044304 | 0 | 337 | 1.6 | 3.2 | 0.10 | 1.63 | 1.63 | 95 | 1008.1 |
| 20260506043805 | 0 | 337 | 0.0 | 3.2 | 0.10 | 1.63 | 1.63 | 95 | 1008.1 |
| 20260506042804 | 0 | 311 | 1.6 | 3.2 | 0.08 | 1.63 | 1.60 | 95 | 1008.1 |
| 20260506041805 | 0 | 355 | 1.6 | 4.8 | 0.10 | 1.65 | 1.60 | 95 | 1008.1 |
| 20260506041304 | 0 | 6 | 3.2 | 4.8 | 0.08 | 1.63 | 1.57 | 95 | 1008.1 |
| 20260506040804 | 0 | 351 | 4.8 | 8.0 | 0.08 | 1.63 | 1.57 | 95 | 1008.1 |
| 20260506033304 | 0 | 325 | 3.2 | 4.8 | 0.10 | 1.63 | 1.52 | 95 | 1008.1 |
| 20260506032804 | 0 | 339 | 3.2 | 8.0 | 0.10 | 1.65 | 1.52 | 95 | 1008.1 |
| 20260506032305 | 0 | 346 | 3.2 | 8.0 | 0.10 | 1.63 | 1.50 | 95 | 1008.1 |
| 20260506030804 | 0 | 327 | 6.4 | 11.3 | 0.20 | 1.68 | 1.50 | 95 | 1008.1 |
| 20260506030304 | 0 | 309 | 3.2 | 8.0 | 0.25 | 1.70 | 1.50 | 95 | 1008.1 |
| 20260506025306 | 0 | 328 | 4.8 | 9.7 | 0.33 | 1.68 | 1.47 | 95 | 1008.1 |
| 20260506024304 | 0 | 321 | 6.4 | 9.7 | 0.38 | 1.65 | 1.45 | 95 | 1008.1 |
| 20260506023304 | 0 | 343 | 4.8 | 9.7 | 0.38 | 1.63 | 1.42 | 95 | 1008.1 |
| 20260506022805 | 0 | 329 | 4.8 | 11.3 | 0.38 | 1.63 | 1.42 | 95 | 1008.1 |
| 20260506022306 | 0 | 347 | 4.8 | 11.3 | 0.36 | 1.60 | 1.40 | 95 | 1008.1 |
| 20260506021805 | 0 | 341 | 3.2 | 4.8 | 0.33 | 1.57 | 1.37 | 95 | 1008.1 |
| 20260506020304 | 0 | 330 | 3.2 | 9.7 | 0.20 | 1.45 | 1.24 | 95 | 1008.1 |
| 20260506015805 | 0 | 329 | 4.8 | 9.7 | 0.15 | 1.40 | 1.19 | 95 | 1008.1 |
| 20260506015306 | 0 | 335 | 8.0 | 12.9 | 0.13 | 1.35 | 1.14 | 94 | 1008.1 |
| 20260506014304 | 0 | 353 | 6.4 | 14.5 | 0.05 | 1.27 | 1.07 | 94 | 1008.1 |
| 20260506012805 | 0 | 343 | 6.4 | 9.7 | 0.03 | 1.24 | 1.04 | 94 | 1008.1 |
| 20260506011804 | 0 | 346 | 6.4 | 14.5 | 0.03 | 1.24 | 1.04 | 94 | 1008.1 |
| 20260506010804 | 0 | 343 | 6.4 | 11.3 | 0.03 | 1.24 | 1.04 | 94 | 1008.1 |
| 20260506010304 | 0 | 359 | 6.4 | 12.9 | 0.03 | 1.24 | 1.04 | 94 | 1008.1 |
| 20260506005805 | 0 | 351 | 4.8 | 11.3 | 0.03 | 1.24 | 1.04 | 94 | 1008.1 |
| 20260506003805 | 0 | 350 | 4.8 | 9.7 | 0.00 | 1.22 | 1.02 | 94 | 1008.1 |
| 20260506003304 | 0 | 330 | 4.8 | 12.9 | 0.00 | 1.22 | 1.02 | 94 | 1008.1 |
| 20260506002804 | 0 | 327 | 6.4 | 11.3 | 0.00 | 1.22 | 1.02 | 94 | 1008.1 |
| 20260506002306 | 0 | 349 | 8.0 | 14.5 | 0.00 | 1.22 | 1.02 | 94 | 1008.1 |
| 20260506001304 | 0 | 326 | 6.4 | 12.9 | 0.00 | 1.22 | 1.02 | 94 | 1008.1 |
| 20260506000804 | 0 | 350 | 4.8 | 11.3 | 0.00 | 1.22 | 1.02 | 94 | 1008.1 |
| 20260506000304 | 0 | 348 | 9.7 | 16.1 | 0.00 | 1.22 | 1.02 | 94 | 1008.1 |
| 20260505235804 | 0 | 340 | 4.8 | 12.9 | 0.00 | 1.22 | 1.02 | 94 | 1008.1 |
| 20260505234804 | 0 | 329 | 8.0 | 12.9 | 0.03 | 1.22 | 1.02 | 94 | 1008.1 |
| 20260505231804 | 0 | 330 | 8.0 | 16.1 | 0.05 | 1.22 | 1.02 | 93 | 1008.1 |
| 20260505231304 | 0 | 345 | 8.0 | 12.9 | 0.05 | 1.22 | 1.02 | 93 | 1008.1 |
| 20260505230804 | 0 | 335 | 8.0 | 22.5 | 0.08 | 1.22 | 1.02 | 93 | 1008.1 |
| 20260505225804 | 1 | 306 | 16.1 | 25.7 | 0.08 | 1.22 | 1.02 | 93 | 1008.1 |
| 20260505225305 | 1 | 332 | 12.9 | 25.7 | 0.08 | 1.22 | 1.02 | 93 | 1008.1 |